Back to catalog

NOAA 16 DEB

AliveSSO
NORAD 41233·DEBRIS·🇺🇸 United States

Launched Sep 21, 2000 from Vandenberg Space Force Base

Loading…

Next Passes (next 24 hours)

TLE

FreshSource: Space-Track

Epoch: Sep 14, 2026, 01:46 UTC

1 41233U 00055EN  26257.07407050  .00001888  00000-0  87296-3 0  9998
2 41233  98.6885 293.7780 0037106 240.5178 119.2296 14.21705506553788

Track NOAA 16 DEB in real time with AllMySat

Download on the App Store